Tracking 17844 objects as of 24-August-2016
HD Live streaming from Space Station
objects crossing your sky now

TEAMSAT

Track TEAMSAT now!
10-day predictions
TEAMSAT is classified as:


NORAD ID: 25025
Int'l Code: 1997-066C
Perigee: 692.3 km
Apogee: 27,180.5 km
Inclination: 7.6 °
Period: 480.0 minutes
Semi major axis: 20307 km
RCS: 0.5073 m2 (medium)
Launch date: October 30, 1997
Source: European Space Agency (ESA)
Launch site: FRENCH GUIANA (FRGUI)
Your satellite tracking list
Your tracking list is empty





NASA's NSSDC Master Catalog

Two Line Element Set (TLE):
1 25025U 97066C   16236.15500082 -.00000106  00000-0 -38442-4 0  9995
2 25025   7.6414 206.0592 6521818 122.4984 353.0545  3.07949165211747
Source of the keplerian elements: AFSPC

N2YO: 486